www.pogodaiklimat.ru

Погода и климат >> Архив погоды >> Украина >> Львов


АРХИВ ПОГОДЫ в Львове

Время (UTC), дата Ветер
(напр.,м/с)
 
Видим.   Явления Облачность Т
(С)
Тd
(С)
f
(%)
Тe
(С)
Тes
(С)
Комфортность P
(гПа)
Po
(гПа)
Тmin
(С)
Tmax
(С)
R
(мм)
R24
(мм)
S
(см)
03 14.05 С 2 10 км 10/10 180 м
[St]
+6.7 +5.3 91 +4 +4 холодно 1024.4 985.1
06 14.05 С 2 10 км 10/10 240 м
[St]
+7.3 +6.2 93 +5 +5 холодно 1024.0 984.8 +6.6 0.0
09 14.05 С 2 10 км 10/10 240 м
[St]
+8.6 +7.1 90 +7 +7 очень
холодно
1023.1 984.1
12 14.05 СВ 1 10 км {дождь} 10/10 270 м
[St]
+10.2 +8.6 90 +10 +10 очень
холодно
1021.9 983.2
15 14.05 С 2 10 км 10/10 240 м
[St]
+10.7 +9.1 90 +9 +9 очень
холодно
1020.3 981.7
18 14.05 С 2 5000 м дымка 10/10 150 м
[St]
+9.7 +8.9 95 +8 +8 холодно 1020.2 981.5 +10.8 0.0
21 14.05 С 1 4400 м слаб. дождь {морось} 10/8 90 м
[Frnb As op]
+9.7 +9.3 97 +9 +9 прохладно 1019.2 980.5
00 15.05 штиль 0 4400 м слаб. дождь 10/8 90 м
[Frnb As op]
+9.7 +9.3 97 +9 +9 по сезону 1017.5 978.9
03 15.05 СВ 2 7000 м слаб. дождь 10/8 60 м
[Frnb As op]
+10.4 +9.8 96 +9 +9 по сезону 1015.4 977.0
06 15.05 СВ 1 100 м туман {дождь} ?/? +11.1 +11.1 100 +11 +11 по сезону 1014.9 976.6 +9.5 6
09 15.05 В 2 10 км в посл. час дождь {туман} 10/10 210 м
[Sc]
+13.6 +12.7 94 +13 +13 по сезону 1014.6 976.6
12 15.05 В 2 9000 м слаб. дождь {туман} 10/0 360 м
[As op]
+14.4 +13.3 93 +14 +17 прохладно 1013.7 975.9
15 15.05 СВ 1 10 км {ливн. осадки, дождь} 9/9 420 м
[Cb calv]
+16.0 +13.7 86 +17 +17 по сезону 1012.8 975.2
18 15.05 штиль 0 10 км гроза без осадков {ливн. осадки} 8/8 800 м
[Cb calv]
+15.1 +13.3 89 +15 +15 по сезону 1012.6 974.9 +17.2 2
21 15.05 С 1 10 км слаб. ливневой дождь, в посл. час гроза 10/10 900 м
[Cb calv]
+12.0 +11.6 97 +12 +12 по сезону 1012.4 974.3
00 16.05 ЮВ 2 8000 м дымка {гроза, ливн. осадки} 8/8 570 м
[Sc]
+11.8 +11.2 96 +11 +11 по сезону 1013.7 975.5
03 16.05 Ю 1 300 м туман ?/? +12.1 +11.8 98 +12 +12 по сезону 1014.0 975.9
06 16.05 СВ 1 10 км {морось, туман} 6/4 300 м
[St Ac trans]
+14.5 +12.3 87 +15 +18 тепло 1014.9 977.0 +10.9 17
09 16.05 С 2 10 км 10/10 420 м
[Sc]
+15.6 +12.9 84 +15 +15 по сезону 1014.8 977.1
12 16.05 В 2 7000 м слаб. дождь 10/8 210 м
[Frnb As op]
+14.8 +14.1 96 +14 +15 прохладно 1014.3 976.5
15 16.05 В 1 10 км в посл. час ливневой дождь 10/10 240 м
[Cb cap]
+15.1 +14.4 96 +16 +16 по сезону 1013.0 975.3
18 16.05 В 2 10 км в посл. час ливневой дождь 10/10 570 м
[Cb calv]
+14.6 +13.9 96 +14 +14 по сезону 1011.9 974.2 +15.7 4
21 16.05 штиль 0 6000 м дымка 6/6 600 м
[Sc]
+12.4 +11.8 96 +12 +12 по сезону 1012.3 974.3
00 17.05 штиль 0 6000 м дымка 8/8 480 м
[Sc]
+12.5 +12.1 97 +12 +12 тепло 1012.1 974.1
03 17.05 В 1 200 м туман ?/? +11.8 +11.8 100 +11 +11 по сезону 1011.9 973.8
06 17.05 Ю 1 9000 м слаб. ливневой дождь {туман} 10/10 180 м
[Cb cap]
+13.4 +12.6 95 +13 +13 по сезону 1012.7 974.8 +10.2 0.3
09 17.05 ЮЗ 1 10 км {ливн. осадки} 6/6 720 м
[Sc]
+17.3 +13.4 78 +18 +26 тепло 1012.9 975.5
12 17.05 В 2 10 км {ливн. осадки} 8/8 1000 м
[Sc]
+22.1 +13.4 58 +25 +28 комфорт 1011.8 975.0
15 17.05 В 2 10 км 6/6 1050 м
[Sc]
+21.3 +14.1 63 +24 +26 комфорт 1011.5 974.7
18 17.05 штиль 0 10 км 9/5 1200 м
[Cb calv Ac trans]
+19.4 +14.1 71 +21 +21 комфорт 1011.8 974.7 +22.2 0.1
21 17.05 СВ 1 10 км 6/0
[Ac trans]
+14.3 +13.6 96 +15 +15 тепло 1012.5 974.7
00 18.05 штиль 0 10 км 10/0
[Ac As]
+13.0 +12.5 97 +12 +12 тепло 1012.4 974.4
03 18.05 С 1 10 км 10/10 1080 м
[Sc]
+13.9 +12.3 90 +14 +14 тепло 1011.9 974.1
06 18.05 штиль 0 10 км {ливн. осадки} 6/6 900 м
[Sc]
+16.9 +14.0 83 +17 +20 тепло 1011.3 973.9 +12.7 0.3
09 18.05 С 1 10 км 6/0
[Ac trans]
+20.8 +16.2 75 +25 +37 комфорт 1010.9 974.0
12 18.05 В 2 10 км 8/4 1000 м
[Cu hum Ac trans]
+24.8 +14.7 53 +27 +33 жарко 1008.9 972.6
15 18.05 С 1 9000 м гроза, ливневой дождь 10/10 1200 м
[Cb calv]
+15.7 +14.5 93 +16 +16 по сезону 1009.6 972.1
18 18.05 ЮВ 2 10 км слаб. ливневой дождь, в посл. час гроза 10/10 1380 м
[Cb calv]
+15.2 +14.9 98 +15 +15 по сезону 1009.4 971.9 +24.8 29
21 18.05 ЮВ 2 10 км {ливн. осадки} 10/10 840 м
[Cb calv]
+14.8 +14.1 96 +14 +14 по сезону 1009.9 972.3
00 19.05 СВ 1 10 км {ливн. осадки} 8/0
[Ac trans]
+14.1 +13.4 96 +14 +14 тепло 1009.4 971.7
03 19.05 В 2 10 км 10/10 210 м
[St]
+14.3 +13.7 96 +14 +14 тепло 1009.0 971.3
06 19.05 Ю 4 6000 м дымка 10/10 180 м
[St]
+15.0 +13.8 93 +14 +14 по сезону 1009.4 971.8 +13.6 0.3
09 19.05 ЮВ 3 10 км 8/8 450 м
[Sc]
+19.0 +15.5 80 +21 +23 комфорт 1009.2 972.2
12 19.05 ЮВ 5 10 км 4/4 1000 м
[Cu hum]
+22.7 +16.0 66 +27 +32 душно 1008.1 971.6
15 19.05 ЮВ 6 10 км 6/6 960 м
[Cu med, cong]
+23.1 +16.7 67 +28 +29 душно 1007.0 970.6
18 19.05 В 3 10 км 4/4 1000 м
[Cu med, cong]
+21.3 +16.2 73 +25 +25 комфорт 1007.6 970.9 +24.2
21 19.05 ЮВ 4 10 км 4/0
[Ac trans]
+18.8 +16.7 88 +20 +20 тепло 1007.6 970.6
00 20.05 В 1 10 км 3/0
[Ac trans]
+17.5 +16.2 92 +19 +19 тепло 1006.8 969.7
03 20.05 ЮВ 4 10 км 3/0
[Ac trans]
+17.1 +15.2 89 +17 +17 тепло 1005.4 968.3
06 20.05 ЮВ 7 10 км 6/0
[Ac trans Ci fib]
+18.4 +16.1 86 +18 +19 тепло 1006.4 969.4 +17.0
09 20.05 ЮВ 6 10 км 6/0
[Ac trans]
+21.8 +16.4 71 +26 +30 душно 1006.4 969.8
12 20.05 ЮВ 6 10 км гроза без осадков 9/9 1000 м
[Cb calv]
+22.5 +17.6 74 +28 +28 душно 1004.9 968.5
15 20.05 СЗ 1 10 км гроза, ливневой дождь 10/10 1200 м
[Cb calv]
+14.8 +13.9 94 +15 +15 прохладно 1007.4 969.9
18 20.05 СВ 1 10 км гроза, ливневой дождь 10/5 1200 м
[Cb calv Ac As]
+14.2 +13.3 94 +14 +14 по сезону 1006.8 969.2 +24.1 13
21 20.05 В 2 10 км гроза, ливневой дождь 10/10 330 м
[Cb cap]
+13.6 +13.1 97 +13 +13 по сезону 1007.6 969.9
00 21.05 ЮВ 1 10 км слаб. ливневой дождь {гроза} 10/10 450 м
[Cb calv]
+13.1 +12.6 97 +13 +13 тепло 1006.3 968.6

 

Местоположение метеостанции Львов (Львовская область, Украина): широта 49.82 долгота 23.95 высота над уровнем моря 323 м.

В архиве по умолчанию представлена погода в Львове за последнюю неделю. Архивные данные за месяц целиком и за предыдущие месяцы, начиная с января 2011 года, Вы можете получить, выбрав интересующий диапазон дат из раскрывающегося списка и нажав кнопку "Ввод!".


*Определитесь, кто Вы:
робот инопланетянин человек

Внимание! Время в таблицах - всемирное. Для получения местного времени необходимо прибавить поправку, которая равна 2 ч.

Смотрите также архив погоды в соседних городах и на ближайших метеорологических станциях:

Погода в Каменке-Бугской (Львовская область, Украина) (42 км)
Погода в Яворове (Львовская область, Украина) (43 км)
Погода в Межгорье (Закарпатская область, Украина) (48 км)
Погода в Раве-Русской (Львовская область, Украина) (53 км)
Погода в Мостиске (Львовская область, Украина) (57 км)
Погода в Дрогобыче (Львовская область, Украина) (61 км)
Погода в Стрые (Львовская область, Украина) (64 км)
Погода в Славском (Львовская область, Украина) (84 км)
Погода в Бережанах (Львовская область, Украина) (84 км)
Погода в Пшемысле (Польша) (86 км)

Пояснения к столбцам:

Ветер - указаны скорость ветра в м/с - средняя за 10 мин, порывы в срок и между сроками (в фигурных скобках) и направление, откуда дует ветер: С - северный, СВ - северо-восточный, В - восточный, ЮВ - юго-восточный, Ю - южный, ЮЗ - юго-западный, З - западный, СЗ - северо-западный.
Видимость - горизонтальная дальность видимости в метрах или километрах. При видимости от 1 до 10 км при отсутствии осадков обычно наблюдается дымка, при ухудшении видимости до 1 км и менее - туман. В сухую погоду видимость может ухудшаться дымом, пылью или мглою.
Явления - указаны атмосферные явления, наблюдавшиеся в срок или в последний час перед сроком; фигурными скобками обозначены явления, наблюдавшиеся между сроками (за 1-3 часа до срока); квадратными скобками обозначены град или гололедные отложения с указанием их диаметра в мм.
Облачность - указаны через наклонную черту общая и нижняя облачность в баллах и высота нижней границы облаков в метрах; квадратными скобками обозначены формы облаков: Ci - перистые, Cs - перисто-слоистые, Cc - перисто-кучевые, Ac - высококучевые, As - высокослоистые, Sc - слоисто-кучевые, Ns - слоисто-дождевые, Cu - кучевые, Cb - кучево-дождевые. Подробнее классификацию облаков см. в Атласе облаков (PDF).
T - Температура воздуха - температура, измеренная на высоте 2 м над землей.
Td - Температура точки росы - температура, при понижении до которой содержащийся в воздухе водяной пар достигнет насыщения.
f - Относительная влажность воздуха - влажноcть воздуха, измеренная на высоте 2 м над землей.
Te - Эффективная температура - температура, которую ощущает одетый по сезону человек в тени. Характеристика душности погоды. При расчете учитывается влияние влажности воздуха и скорости ветра на теплоощущения человека.
Tes - Эффективная температура на солнце - температура, которую ощущает человек, с поправкой на солнечный нагрев. Характеристика знойности погоды. Зависит от высоты солнца над горизонтом, облачности и скорости ветра. Ночью, в пасмурную погоду, а также при ветре 12 м/с и более поправка равна нулю.
P - Атмосферное давление - приведенное к уровню моря атмосферное давление.
Po - Атмосферное давление - измеренное на уровне метеостанции атмосферное давление.
Tmin - Минимальная температура - минимум температуры воздуха на высоте 2 м над землей.
Tmax - Максимальная температура - максимум температуры воздуха на высоте 2 м над землей.
R - Количество осадков - Количество выпавших осадков за период времени, мм. При наведении курсора мыши на число - период времени, за который выпало указанное количество осадков.
R24 - Количество осадков - Количество выпавших осадков за 24 часа, мм.
S - Снежный покров - Высота снежного покрова, см. При наведении курсора мыши на число - состояние снежного покрова и степень покрытия местности в баллах.